Wind_Speed
36 36 35 34 36 37 37 37 38 38 38 38 38 38 39 39 39 39 38 39 41 41 42 43 45 45 44 44 44 45 45 45 46 46 47 48 49 50 51 52 53 54
38 38 37 37 38 39 38 38 39 39 39 39 39 39 40 40 40 39 40 41 42 43 42 43 44 45 44 44 44 45 45 45 45 46 47 48 49 50 52 53 54 55
40 40 39 39 40 41 40 40 40 40 40 40 40 41 41 41 41 41 41 42 42 43 43 43 44 45 45 45 45 46 46 45 45 46 47 48 49 51 52 53 54 55
41 41 41 41 42 42 41 41 41 42 42 42 42 42 42 42 42 42 42 42 43 44 44 45 45 46 46 46 46 46 46 46 46 47 48 49 50 52 53 54 55 57
43 42 42 42 42 42 42 42 43 43 43 43 44 44 44 43 43 42 42 42 43 45 45 46 46 46 47 46 46 46 46 46 46 47 49 50 51 52 54 55 56 58
43 43 42 42 42 42 42 43 44 44 44 45 45 45 45 44 43 43 43 44 45 45 45 46 46 46 46 46 46 46 46 46 47 48 49 51 52 53 54 56 57 59
43 44 44 43 43 42 42 43 44 44 45 45 46 45 45 44 44 44 45 45 45 45 45 46 46 46 46 46 46 46 46 47 48 49 50 51 52 54 55 57 58 60
44 44 44 45 44 43 43 44 44 44 44 45 45 45 45 45 45 46 47 47 46 45 46 46 46 46 46 46 46 47 47 48 49 50 51 52 53 55 56 58 60 62
45 44 45 45 46 45 45 45 45 44 45 45 45 45 46 46 47 48 49 48 47 46 46 46 46 47 48 48 48 48 48 49 49 50 52 53 55 56 58 59 61 64
45 45 46 47 47 47 47 46 46 46 46 46 47 47 47 47 48 49 50 49 49 48 48 48 48 49 49 50 50 49 49 50 50 52 53 55 56 57 59 61 63 65
45 46 46 47 48 49 48 48 48 49 49 49 49 49 49 49 49 50 50 50 50 50 50 50 50 50 51 51 51 50 50 51 52 54 55 56 57 58 60 62 64 65
47 48 48 49 50 50 50 51 51 51 51 51 51 50 50 51 51 51 51 52 52 51 51 51 52 52 53 52 52 52 52 53 54 55 55 56 57 59 61 63 65 67
50 51 51 51 52 52 53 53 53 53 52 51 51 51 52 52 52 52 52 53 53 52 52 53 53 53 54 54 53 53 54 54 55 55 56 57 58 60 63 65 67 69
52 53 53 53 53 53 54 54 53 53 52 52 52 52 53 53 53 53 53 53 53 53 54 54 54 54 54 54 54 55 55 55 55 56 56 57 59 61 63 66 68 70
52 53 53 53 53 53 53 53 53 52 52 52 52 53 53 53 53 53 53 53 54 54 55 55 55 55 55 55 55 56 55 55 55 56 56 59 61 63 64 66 67 69
52 52 52 52 52 52 52 52 52 53 52 52 52 52 52 52 53 53 53 54 55 55 56 55 55 55 55 56 56 56 55 55 55 55 57 60 63 64 65 66 67 69
53 52 52 52 52 52 52 52 52 53 52 52 51 52 52 52 52 53 54 55 56 56 56 56 55 56 56 56 56 55 55 55 55 56 58 61 63 64 65 67 69 70
51 51 51 51 52 52 53 52 52 52 52 52 52 52 52 53 53 54 55 57 57 57 57 56 56 56 56 55 55 54 54 55 56 57 60 62 63 65 66 69 71 72
49 49 50 50 51 51 52 51 51 52 52 52 52 53 53 54 55 56 57 58 58 58 57 56 55 55 55 55 54 54 53 54 56 58 61 62 64 65 67 70 71 71
45 46 47 48 48 49 49 50 50 51 52 52 53 54 54 55 56 58 58 58 58 57 56 55 54 54 54 54 54 53 53 55 57 59 61 63 65 67 69 70 71 71
44 45 45 46 47 47 47 48 49 50 51 52 53 54 55 56 56 57 57 57 57 56 55 54 54 54 53 51 52 53 54 56 58 60 61 63 65 67 68 69 70 70
47 46 47 47 47 47 47 48 48 49 50 51 52 53 53 54 55 55 55 55 55 55 55 54 53 52 51 51 52 54 55 56 57 59 61 63 65 66 67 68 69 70
50 50 50 50 50 50 49 49 49 49 49 50 50 51 52 53 53 54 54 55 55 55 54 52 51 51 52 52 53 54 56 56 58 59 61 63 65 66 66 66 67 69
54 54 54 53 53 52 52 51 51 50 50 50 51 51 52 52 53 54 54 55 54 54 53 52 51 52 53 54 54 55 57 58 59 60 62 64 64 64 64 65 67 70
57 57 57 56 55 55 54 53 53 52 52 52 52 52 52 52 53 54 54 54 54 53 53 53 54 54 55 55 56 57 58 58 59 61 62 63 63 63 64 66 69 71
58 59 59 58 58 57 56 55 55 54 53 53 52 52 52 53 53 53 54 54 55 55 55 55 56 56 57 57 57 58 58 58 59 60 61 62 62 63 64 65 67 69
Wind_Direction
281 281 282 282 282 281 281 281 281 281 282 282 281 280 279 279 278 279 279 281 282 283 284 284 285 285 285 285 284 284 284 283 283 284 284 285 286 286 287 288 289 290
280 279 280 280 280 280 280 280 279 280 281 281 280 279 278 278 279 280 280 281 282 283 284 284 284 285 284 284 284 283 283 283 283 283 284 285 286 286 287 288 289 290
278 278 278 278 278 279 278 278 278 279 280 280 279 279 279 279 280 281 281 282 283 284 285 285 284 285 285 284 284 284 283 283 283 283 284 285 285 286 287 288 289 290
277 276 276 276 276 277 277 277 278 279 280 279 279 279 279 280 280 281 282 283 284 285 285 285 284 284 284 285 285 284 284 283 283 283 284 284 285 286 287 288 289 291
277 275 274 273 274 275 276 277 278 278 278 279 279 279 279 280 280 280 282 284 285 285 284 284 284 284 284 284 284 284 284 283 283 283 284 284 285 286 287 289 290 291
276 274 272 271 273 274 275 276 276 277 277 277 278 278 279 279 278 279 282 284 285 285 284 283 283 283 283 283 283 283 283 283 283 283 284 285 286 287 288 289 290 291
276 273 271 271 272 273 274 275 275 275 275 276 277 278 278 278 278 279 282 284 285 285 284 283 282 282 282 282 282 283 283 283 283 283 284 286 287 288 289 289 290 290
275 274 272 271 271 272 275 276 275 274 274 275 276 277 278 277 278 279 282 284 285 285 284 283 282 281 281 281 281 282 282 283 283 284 285 287 287 288 288 289 290 290
274 273 272 271 271 273 275 275 274 274 274 275 276 277 277 277 278 279 281 283 284 284 283 282 281 280 280 280 280 281 282 283 284 285 286 287 287 288 289 290 290 290
274 272 272 271 272 273 274 274 274 274 275 275 276 276 276 276 277 278 280 282 283 283 282 281 280 279 279 280 280 281 282 284 285 286 286 287 288 288 289 289 289 290
274 273 273 273 273 274 274 274 274 274 275 275 275 275 275 276 276 278 280 281 282 282 281 280 279 279 280 280 281 282 283 285 285 286 287 287 287 287 288 289 289 290
275 275 275 275 275 276 276 275 275 275 274 274 274 274 275 275 276 277 279 280 280 281 281 280 280 280 281 282 283 284 285 285 286 286 286 286 287 287 288 288 289 290
278 277 277 277 277 277 276 275 275 274 274 273 273 274 274 276 277 278 279 280 281 281 282 281 281 281 282 283 284 285 286 286 286 286 286 286 287 287 287 287 288 290
279 279 279 279 279 278 277 276 275 274 274 273 274 275 276 277 278 279 279 280 281 282 282 282 281 282 283 284 285 285 285 285 285 286 286 285 285 285 286 287 289 290
280 280 280 279 279 278 277 276 275 274 274 274 274 276 277 278 278 279 279 280 281 282 282 282 282 282 283 284 285 285 284 284 285 285 285 284 283 284 286 287 289 290
281 281 280 280 279 278 277 276 275 274 274 274 275 276 277 278 278 279 279 280 281 281 281 282 282 283 284 284 284 284 285 286 286 286 285 284 284 285 286 288 289 291
281 281 281 280 280 279 278 277 276 275 275 275 276 276 277 277 278 278 279 280 280 280 281 281 282 283 283 283 283 284 286 286 285 285 284 284 285 287 288 289 290 291
281 280 280 279 278 278 277 277 276 276 276 276 276 276 276 277 277 278 278 278 278 279 279 280 281 282 281 282 283 284 285 284 283 283 283 284 285 287 288 289 290 292
281 280 279 278 277 277 277 277 276 276 276 276 275 275 275 276 276 276 276 277 277 277 278 279 279 279 279 281 282 282 283 283 283 283 283 284 285 286 288 289 290 292
282 281 279 278 277 276 276 276 276 275 275 275 275 274 274 274 275 275 275 275 276 276 277 277 277 278 279 280 281 281 282 283 283 283 284 285 286 287 288 289 291 292
284 282 281 280 279 278 277 276 275 274 273 273 273 273 273 274 274 274 274 274 275 275 275 275 276 277 277 277 279 280 281 282 282 283 285 285 286 287 288 290 292 293
287 285 284 283 282 281 279 278 276 274 273 273 272 273 273 273 273 273 273 273 273 273 274 274 274 274 275 276 278 280 282 283 284 285 286 286 286 287 289 290 291 292
287 287 287 287 286 284 283 281 279 277 276 275 274 274 274 273 273 272 272 271 271 271 271 272 272 273 275 278 280 282 283 284 285 285 285 285 286 288 289 290 289 288
287 287 287 288 287 286 285 284 282 281 279 278 277 276 275 274 273 272 271 270 270 269 269 270 273 275 278 280 282 283 284 285 285 285 285 286 288 289 288 286 285 285
286 287 287 287 287 286 286 285 284 283 281 280 279 278 276 275 273 272 270 268 267 267 268 272 275 277 279 281 283 283 284 285 285 286 286 287 287 286 284 284 284 285
285 285 285 285 285 285 284 284 283 282 282 281 279 278 276 274 272 270 268 267 267 268 270 273 276 278 280 281 282 283 284 285 285 286 286 286 285 285 285 284 284 285
Height
5792 5791 5791 5790 5789 5787 5787 5786 5785 5784 5783 5783 5782 5780 5779 5778 5777 5776 5775 5774 5773 5772 5771 5769 5768 5766 5765 5764 5762 5761 5760 5759 5757 5756 5755 5753 5751 5750 5748 5747 5745 5743
5787 5786 5786 5785 5784 5783 5782 5781 5780 5779 5779 5778 5777 5775 5774 5773 5772 5771 5770 5769 5768 5767 5766 5764 5762 5761 5760 5759 5757 5756 5754 5753 5752 5751 5749 5747 5746 5744 5742 5741 5739 5737
5782 5781 5781 5780 5778 5777 5777 5776 5775 5774 5774 5772 5771 5770 5769 5768 5767 5766 5765 5764 5763 5761 5760 5759 5757 5755 5754 5753 5752 5750 5749 5748 5746 5745 5743 5741 5740 5738 5736 5735 5733 5731
5777 5776 5775 5775 5773 5772 5772 5771 5770 5769 5768 5767 5766 5765 5764 5763 5762 5761 5759 5758 5757 5756 5755 5753 5752 5750 5749 5748 5746 5744 5743 5742 5740 5739 5737 5735 5734 5732 5731 5729 5727 5725
5772 5771 5770 5769 5768 5767 5766 5766 5765 5764 5762 5761 5760 5759 5758 5758 5757 5755 5754 5753 5752 5751 5749 5748 5746 5744 5743 5742 5741 5739 5737 5736 5735 5733 5731 5729 5728 5727 5725 5723 5721 5719
5767 5765 5764 5763 5762 5762 5761 5760 5759 5758 5757 5756 5754 5753 5753 5752 5751 5750 5749 5748 5746 5745 5744 5742 5740 5739 5737 5736 5734 5733 5732 5730 5729 5727 5725 5724 5722 5720 5719 5717 5715 5713
5761 5760 5759 5758 5757 5756 5755 5754 5753 5752 5751 5750 5749 5748 5747 5747 5746 5744 5743 5742 5741 5739 5738 5736 5735 5733 5732 5730 5728 5727 5726 5724 5723 5721 5719 5718 5716 5714 5712 5710 5708 5706
5755 5754 5753 5752 5751 5750 5749 5748 5747 5746 5745 5744 5743 5742 5741 5741 5740 5738 5737 5736 5735 5733 5731 5730 5729 5727 5726 5724 5723 5721 5720 5718 5717 5715 5713 5712 5710 5707 5705 5703 5701 5699
5749 5748 5747 5746 5745 5744 5743 5741 5740 5739 5739 5738 5737 5736 5735 5734 5733 5732 5731 5730 5729 5727 5725 5724 5722 5721 5719 5718 5717 5715 5714 5713 5711 5709 5707 5705 5703 5701 5699 5697 5694 5692
5742 5742 5741 5740 5738 5737 5736 5735 5734 5733 5733 5732 5731 5730 5729 5728 5727 5725 5724 5723 5722 5721 5719 5717 5716 5714 5713 5712 5711 5709 5708 5706 5705 5703 5701 5699 5696 5694 5692 5690 5687 5684
5735 5734 5734 5733 5732 5731 5730 5729 5728 5727 5726 5725 5724 5723 5722 5721 5720 5719 5718 5717 5715 5714 5713 5711 5709 5708 5707 5706 5704 5703 5702 5700 5698 5696 5694 5692 5690 5688 5685 5683 5680 5677
5729 5728 5727 5726 5725 5725 5724 5723 5722 5721 5720 5718 5718 5717 5715 5714 5714 5712 5711 5710 5709 5708 5706 5705 5703 5702 5701 5699 5698 5696 5695 5693 5691 5689 5687 5685 5683 5681 5678 5676 5673 5670
5723 5721 5721 5720 5719 5718 5717 5716 5715 5714 5713 5712 5711 5710 5709 5708 5707 5706 5705 5704 5702 5701 5700 5699 5697 5696 5694 5693 5691 5690 5688 5686 5684 5682 5680 5678 5676 5674 5671 5669 5666 5663
5716 5715 5714 5713 5712 5711 5710 5709 5709 5708 5707 5706 5704 5704 5703 5702 5700 5699 5698 5697 5696 5695 5694 5692 5691 5689 5688 5687 5685 5683 5681 5679 5677 5675 5673 5671 5669 5667 5664 5661 5659 5656
5710 5708 5708 5706 5705 5704 5703 5702 5702 5701 5700 5699 5698 5697 5696 5695 5694 5693 5692 5691 5690 5688 5687 5686 5684 5683 5681 5679 5677 5675 5673 5672 5670 5668 5666 5664 5662 5659 5657 5654 5652 5649
5703 5702 5701 5699 5698 5697 5696 5696 5695 5694 5693 5692 5692 5691 5689 5688 5687 5686 5685 5684 5683 5682 5680 5679 5678 5676 5674 5672 5670 5668 5666 5664 5663 5661 5659 5657 5655 5652 5650 5647 5644 5641
5697 5696 5694 5693 5691 5690 5689 5689 5688 5687 5686 5685 5684 5683 5682 5681 5680 5679 5678 5677 5676 5675 5674 5672 5671 5669 5667 5665 5663 5661 5659 5658 5656 5654 5652 5650 5648 5645 5642 5639 5636 5633
5690 5689 5688 5686 5685 5683 5682 5682 5682 5680 5679 5678 5677 5676 5675 5675 5674 5672 5671 5670 5669 5668 5666 5665 5664 5662 5660 5658 5656 5655 5653 5651 5649 5647 5645 5643 5640 5638 5635 5632 5629 5626
5683 5682 5681 5680 5679 5677 5676 5676 5675 5674 5673 5672 5671 5670 5669 5668 5667 5666 5664 5663 5662 5661 5659 5658 5657 5655 5653 5651 5650 5648 5646 5644 5642 5640 5638 5635 5633 5630 5628 5625 5622 5619
5676 5675 5674 5673 5672 5671 5670 5670 5669 5668 5666 5665 5664 5663 5662 5662 5660 5659 5657 5656 5655 5653 5652 5651 5649 5648 5647 5645 5643 5641 5640 5637 5635 5632 5630 5628 5625 5623 5620 5617 5615 5612
5669 5668 5667 5667 5666 5665 5664 5663 5662 5661 5660 5659 5658 5657 5656 5655 5653 5652 5650 5649 5647 5646 5645 5644 5643 5641 5640 5639 5636 5634 5632 5630 5628 5625 5623 5620 5618 5615 5613 5610 5607 5605
5662 5661 5660 5660 5659 5658 5657 5656 5655 5654 5653 5652 5651 5650 5649 5647 5646 5645 5643 5642 5640 5639 5638 5637 5635 5634 5633 5631 5630 5627 5625 5623 5620 5617 5615 5612 5609 5607 5605 5602 5599 5597
5654 5654 5653 5652 5651 5650 5649 5648 5647 5647 5646 5645 5644 5643 5641 5640 5639 5637 5636 5635 5633 5632 5630 5629 5628 5627 5625 5624 5622 5620 5617 5615 5612 5610 5607 5604 5601 5600 5598 5595 5591 5588
5647 5646 5645 5644 5643 5642 5641 5640 5639 5639 5638 5637 5635 5634 5633 5632 5631 5629 5628 5627 5626 5624 5623 5621 5620 5619 5617 5616 5614 5612 5609 5607 5604 5601 5598 5595 5594 5592 5590 5587 5583 5579
5640 5639 5638 5637 5635 5634 5633 5632 5632 5631 5630 5628 5627 5626 5625 5624 5623 5621 5620 5619 5618 5617 5616 5614 5612 5611 5609 5608 5606 5603 5600 5598 5595 5592 5590 5587 5586 5583 5580 5577 5574 5570
5633 5631 5630 5629 5628 5627 5626 5624 5623 5622 5621 5620 5619 5618 5617 5616 5615 5614 5612 5611 5610 5609 5608 5606 5604 5602 5601 5599 5597 5594 5592 5589 5586 5584 5581 5579 5577 5574 5571 5568 5565 5561